{"data":{"norad_id":62815,"intl_designator":"2025-018K","name":"STARLINK-32845","alt_names":[],"object_type":"PAYLOAD","status":"ACTIVE","operator":null,"country":"US","launch_date":"2025-01-24","launch_site_code":"AFWTR","launch_vehicle":null,"mission":null,"orbit_class":"UNKNOWN","rcs_meters":null,"size_class":null,"mass_kg":null,"dimensions":null,"purposes":["comms"],"wikipedia_slug":null,"has_3d_model":false,"image_url":null,"decayed_at":null,"tle_current":{"epoch":"2026-05-25T04:29:28.536576Z","epoch_age_seconds":54838,"freshness":"FRESH","line1":"1 62815U 25018K   26145.18713584  .00014900  00000+0  51400-3 0  9999","line2":"2 62815  53.1601 314.0492 0000406 110.0882 250.0162 15.30211344 74880","mean_motion":15.30211344,"eccentricity":4.06e-5,"inclination_deg":53.1601,"raan_deg":314.0492,"arg_perigee_deg":110.0882,"mean_anomaly_deg":250.0162,"bstar":0.000514,"rev_number":7488,"period_min":94.104648070103,"perigee_km":474.90295377048,"apogee_km":475.4594432082,"semimajor_km":6853.3181984893,"source":"CELESTRAK","updated_at":"2026-05-25T13:38:19.774854Z"}}}